This is the latest recevied weather packets stored in our database for station/object NI4CE-11. If no packets are shown the sender has not sent any weather packets the latest 10 day(s).
| Time | Temp. | Humidity | Pressure | Rain* | Wind** | Luminosity | Snow |
|---|---|---|---|---|---|---|---|
| 1777402526 | 33.89° C | 100% | 1018.8 hPa | 0 mm | - | - | - |
| 1777402226 | 31.11° C | 100% | 1018.8 hPa | 0 mm | - | - | - |
| 1777401974 | 30.56° C | 100% | 1019.1 hPa | 0 mm | - | - | - |
| 1777401926 | 30° C | 100% | 1018.9 hPa | 0 mm | - | - | - |
| 1777401626 | 28.89° C | 100% | 1019 hPa | 0 mm | - | - | - |
| 1777401326 | 30° C | 100% | 1019 hPa | 0 mm | - | - | - |
| 1777401026 | 30.56° C | 100% | 1019 hPa | 0 mm | - | - | - |
| 1777400726 | 30.56° C | 100% | 1019.1 hPa | 0 mm | - | - | - |
| 1777400426 | 31.11° C | 100% | 1019 hPa | 0 mm | - | - | - |
| 1777400126 | 30° C | 100% | 1019.1 hPa | 0 mm | - | - | - |
| 1777399826 | 29.44° C | 100% | 1019.1 hPa | 0 mm | - | - | - |
| 1777399526 | 30.56° C | 100% | 1019 hPa | 0 mm | - | - | - |
| 1777399226 | 30.56° C | 100% | 1019.2 hPa | 0 mm | - | - | - |
| 1777398926 | 29.44° C | 100% | 1019.2 hPa | 0 mm | - | - | - |
| 1777398626 | 29.44° C | 100% | 1019.2 hPa | 0 mm | - | - | - |
| 1777398326 | 29.44° C | 100% | 1019.2 hPa | 0 mm | - | - | - |
| 1777398026 | 28.89° C | 100% | 1019.3 hPa | 0 mm | - | - | - |
| 1777397859 | 29.44° C | 100% | 1019.3 hPa | 0 mm | - | - | - |
| 1777397727 | 29.44° C | 100% | 1019.3 hPa | 0 mm | - | - | - |
| 1777397426 | 28.89° C | 100% | 1019.3 hPa | 0 mm | - | - | - |
| 1777397267 | 28.33° C | 100% | 1019.3 hPa | 0 mm | - | - | - |
| 1777397126 | 28.33° C | 100% | 1019.3 hPa | 0 mm | - | - | - |
| 1777397099 | 31.11° C | 100% | 1019.4 hPa | 0 mm | - | - | - |
| 1777396826 | 31.11° C | 100% | 1019.4 hPa | 0 mm | - | - | - |
| 1777396527 | 29.44° C | 100% | 1019.5 hPa | 0 mm | - | - | - |
* Rain latest hour (hover to see other rain measurements)
** Current wind speed in m/s (hover to see current wind gust speed)